Theta_e
327 327 324 324 322 321 319 318 313 305 306 312 313 319 322 324 329 333 338 342 341 339 337 337 338 341 346 348 348 350 351 353 353 352 352 355 357 360
327 326 325 323 321 320 319 316 315 312 308 312 313 317 319 322 326 331 335 340 341 339 337 336 336 339 342 344 345 345 347 348 349 349 349 349 350 353
327 326 325 323 320 320 318 316 314 314 312 312 313 316 316 317 321 325 331 336 340 338 337 336 334 336 337 340 341 342 343 344 344 345 346 347 347 348
325 324 324 326 320 319 318 316 315 314 315 311 313 315 315 317 319 322 326 333 337 340 337 335 333 333 333 335 336 337 337 339 339 339 341 343 344 344
325 323 323 323 320 319 318 317 316 317 315 315 315 315 316 316 317 320 322 325 334 338 334 334 334 333 331 330 330 330 329 331 331 331 333 335 338 341
325 324 324 322 322 320 318 318 317 315 313 315 315 314 314 316 317 316 316 321 323 333 339 337 336 335 332 329 329 329 326 324 324 325 326 327 330 333
325 325 325 326 328 325 321 320 317 315 316 316 314 313 313 313 314 317 317 318 320 324 330 337 337 336 335 331 333 332 327 325 323 322 322 322 323 325
321 321 322 328 327 328 328 327 323 316 316 314 314 312 313 315 316 316 316 315 313 322 327 333 336 333 334 336 334 331 327 325 323 322 321 320 320 321
318 319 321 325 326 323 323 325 323 324 323 316 314 314 315 317 317 315 316 315 314 319 322 324 336 335 337 339 331 328 326 325 323 322 321 319 318 317
319 320 319 320 320 319 316 314 314 315 315 316 316 317 318 318 318 317 317 317 318 320 323 320 332 335 338 341 332 329 325 323 322 321 320 317 314 313
315 318 319 318 318 316 312 311 311 312 318 318 318 318 318 319 320 318 316 314 312 315 321 324 329 333 336 338 340 329 324 321 320 320 319 316 312 310
316 317 317 314 312 311 310 309 311 313 313 313 315 316 318 318 320 319 316 315 314 315 321 326 330 333 327 335 340 334 331 319 317 316 316 314 309 320
313 313 312 310 307 307 307 306 309 311 312 314 314 315 316 316 317 319 319 319 316 319 328 330 331 331 331 326 330 331 331 321 322 316 311 309 308 320
311 312 307 306 306 306 307 308 309 311 312 311 311 311 313 314 315 317 319 322 321 320 327 330 330 332 330 327 326 330 328 327 326 323 321 311 308 313
308 307 307 305 305 307 309 310 311 310 309 307 307 308 312 313 314 317 319 320 323 323 325 326 332 330 331 328 326 331 328 327 330 328 325 320 320 319
305 302 308 309 308 307 305 306 308 308 308 307 307 309 311 311 312 315 316 317 321 321 324 326 333 332 328 328 328 326 330 328 330 330 329 328 328 328
300 306 307 307 304 301 300 302 306 305 303 304 307 307 307 308 310 313 315 316 314 315 318 329 332 324 321 326 324 324 329 332 332 332 329 326 327 329
301 300 300 299 298 297 296 297 299 300 300 302 305 306 306 306 307 311 313 313 313 314 316 318 323 322 321 318 318 318 327 326 333 334 332 329 328 329
298 296 295 294 293 292 293 293 294 299 299 301 303 304 305 305 306 307 309 309 311 314 314 317 316 322 322 315 317 312 318 327 332 332 333 332 331 331
294 293 292 291 290 290 291 292 294 297 299 298 299 299 299 304 304 304 305 305 306 310 313 315 315 315 317 314 313 316 306 318 320 329 332 333 326 322
292 291 291 291 290 290 290 291 292 293 295 294 295 296 297 299 302 303 303 303 304 307 312 313 315 316 319 319 315 316 319 310 311 315 327 328 327 327
294 292 292 290 290 290 288 288 290 291 291 291 292 293 295 295 297 300 302 302 303 304 308 316 318 317 315 314 312 313 316 319 316 313 312 312 322 322
295 294 292 291 289 286 285 285 287 288 288 288 290 291 293 293 294 296 299 302 302 304 306 308 313 314 314 314 312 313 314 315 316 316 315 313 313 312
Wind_Speed
5 5 3 3 3 3 2 2 3 2 3 4 4 5 9 10 13 14 14 18 18 21 17 16 15 18 23 25 24 25 24 23 21 20 19 19 20 20
4 5 4 3 3 3 3 2 3 4 4 3 4 8 11 10 15 15 15 19 19 20 19 18 20 19 20 23 24 24 24 24 23 21 20 19 18 18
4 6 7 6 4 4 4 3 3 3 6 4 3 9 12 13 13 12 14 14 11 21 23 23 20 20 19 22 25 24 25 25 23 22 21 20 19 17
6 6 8 5 6 6 5 6 5 5 4 11 5 6 11 13 12 14 12 12 12 16 21 23 21 21 22 23 24 24 24 24 23 21 20 20 20 18
7 6 7 7 7 5 6 5 5 5 5 6 9 6 7 11 11 9 10 12 12 20 19 22 23 21 22 23 22 23 22 22 21 19 19 19 19 20
6 6 7 8 9 8 6 8 6 6 4 6 7 10 8 11 9 9 11 9 11 13 16 20 19 23 24 21 24 25 23 21 20 20 18 18 18 18
6 6 6 10 15 11 6 8 8 6 6 8 9 9 10 10 12 11 11 12 13 10 13 11 11 11 12 17 18 22 20 20 20 19 18 18 18 18
6 7 6 9 10 12 14 17 11 6 8 5 8 10 14 12 13 13 12 12 14 9 12 14 9 11 10 10 16 21 21 21 21 20 19 18 17 17
5 5 6 5 9 7 7 10 9 10 9 4 8 12 13 14 15 17 16 13 14 13 12 15 7 11 10 10 16 19 21 22 21 19 19 19 17 17
3 5 6 8 6 6 3 4 6 6 6 5 7 12 14 16 16 18 20 18 15 13 11 14 9 10 8 9 17 20 20 19 19 18 19 18 17 16
5 6 5 6 3 1 2 5 6 7 7 11 16 20 25 26 25 17 14 13 14 13 11 12 10 7 6 9 7 19 19 19 19 18 18 18 17 13
5 5 2 3 1 3 3 4 8 9 9 12 13 15 18 19 26 18 12 15 11 7 12 11 10 6 3 3 6 5 7 12 13 15 16 15 15 6
3 3 3 4 5 3 2 2 5 9 10 9 9 11 13 15 15 14 12 9 10 9 4 12 6 5 4 2 2 3 6 4 5 6 12 14 17 12
3 2 3 6 4 4 3 5 8 8 6 7 8 10 12 14 18 17 15 9 11 12 10 4 3 7 6 5 3 2 2 4 5 5 5 7 11 11
1 4 5 5 2 4 7 9 8 5 5 7 8 9 11 14 20 16 13 13 10 11 12 12 8 3 5 4 5 4 5 4 5 6 7 8 8 7
6 4 6 3 4 4 4 5 4 4 6 6 7 9 10 11 15 15 11 13 3 5 11 14 10 5 3 3 4 4 4 5 5 5 6 5 5 6
5 3 2 2 3 4 4 4 4 4 5 6 7 8 8 10 12 14 13 8 8 8 7 7 6 9 8 3 2 2 3 3 6 7 5 5 6 7
2 2 2 3 4 4 4 5 4 7 5 6 7 6 7 9 11 12 12 13 10 10 8 6 6 4 2 8 11 2 1 2 4 7 5 6 6 7
3 3 2 3 3 3 4 4 4 7 6 6 5 7 7 8 11 11 12 11 12 9 10 9 8 3 4 3 2 10 1 1 2 6 6 6 6 8
2 2 2 1 2 3 4 3 5 7 7 7 7 7 7 7 9 10 10 11 11 9 11 12 13 11 4 5 6 5 9 1 1 3 4 3 1 7
2 2 1 1 2 3 3 4 4 5 6 7 8 8 8 6 7 8 8 13 10 9 11 13 13 18 9 3 6 5 9 11 9 1 1 6 6 4
3 2 1 0 2 2 3 4 4 5 6 6 7 8 8 7 7 7 8 9 9 8 8 8 8 8 10 11 9 9 7 8 10 23 25 13 1 4
2 1 2 2 3 3 3 4 4 4 4 5 6 7 7 7 8 7 7 7 8 7 8 8 8 7 8 7 6 7 9 7 8 10 15 23 26 22
Wind_Direction
198 188 190 182 160 146 138 136 146 295 291 293 321 300 317 310 303 290 281 267 231 231 227 228 223 234 241 240 230 228 228 226 226 227 226 230 234 238
207 204 203 193 180 166 163 163 171 192 256 247 279 299 307 306 303 308 281 277 256 245 232 235 237 222 229 235 232 223 222 226 223 223 222 222 224 228
222 217 225 191 200 197 197 189 209 188 268 274 245 298 304 308 309 304 298 282 266 250 240 236 233 227 227 230 231 226 221 221 223 223 220 225 224 218
243 234 236 205 215 209 204 213 217 214 223 276 291 290 297 306 298 300 301 295 270 251 245 243 231 225 226 226 225 223 220 220 221 220 218 219 224 221
233 232 238 212 223 221 217 221 224 230 229 256 284 289 291 297 295 291 292 294 283 264 245 240 235 223 222 224 222 219 211 213 218 215 215 216 218 223
244 232 235 220 224 223 222 233 237 245 238 262 277 285 287 295 288 296 297 291 296 294 258 245 243 242 234 223 224 217 214 208 213 218 216 213 215 219
270 260 244 233 237 225 211 238 234 242 253 274 281 282 291 303 299 302 287 287 282 275 277 252 237 237 231 217 223 223 218 213 211 213 214 215 216 217
255 263 261 269 269 247 236 231 230 222 250 253 274 276 289 287 297 291 285 285 285 263 246 254 227 236 233 222 213 216 209 213 211 207 209 217 214 215
271 292 290 268 260 259 266 264 274 279 259 239 264 277 285 286 294 287 279 261 262 264 269 279 234 234 222 222 209 208 204 207 211 202 206 211 209 211
280 276 275 289 286 265 272 296 284 273 271 268 258 276 283 284 285 278 280 267 256 252 244 261 253 234 219 212 200 203 202 199 204 202 201 204 204 205
296 287 281 274 261 243 318 296 290 281 269 277 282 282 280 277 284 285 277 267 249 238 222 238 241 229 203 222 206 198 196 198 199 203 203 200 198 192
289 299 318 185 143 17 332 314 302 303 313 310 305 304 301 298 303 287 278 272 220 230 217 225 226 187 229 218 198 179 200 205 199 203 200 192 166 171
297 291 245 172 120 65 56 5 288 300 301 299 304 302 302 311 311 297 290 255 216 213 303 186 189 187 193 171 195 164 166 133 166 179 176 166 168 179
284 299 198 156 122 60 32 326 320 327 316 310 309 311 312 314 313 316 317 264 216 226 253 326 255 190 186 191 163 126 127 137 148 162 155 146 164 199
263 312 185 143 63 357 4 356 332 331 322 325 319 314 311 310 314 319 329 340 222 223 237 251 272 235 191 181 166 164 144 183 180 167 164 170 168 173
338 330 171 143 55 8 3 328 320 330 325 315 317 310 308 321 322 330 340 349 3 234 227 240 255 232 218 190 161 154 170 163 168 175 167 160 166 184
335 65 78 25 22 356 328 326 323 333 324 325 317 322 333 330 322 331 344 354 6 4 352 221 173 95 62 31 138 137 160 168 174 157 150 174 194 196
85 82 56 19 26 353 345 331 325 332 314 325 311 319 343 331 331 339 345 353 4 6 6 314 148 116 123 61 50 21 163 161 170 171 163 186 196 193
94 74 71 31 7 349 349 338 316 321 316 316 317 332 333 338 349 344 345 352 358 0 11 352 38 339 152 111 9 46 257 355 167 188 179 187 199 198
76 109 93 56 23 2 350 336 320 325 342 333 339 345 338 330 359 350 348 355 354 338 13 17 29 20 359 123 109 45 18 143 228 225 205 181 37 126
113 105 137 91 17 350 343 335 343 338 345 345 340 341 342 343 352 349 352 352 359 346 8 21 17 6 33 29 85 73 58 53 53 271 245 187 184 155
159 169 190 360 353 357 353 1 5 4 349 347 338 335 339 345 343 340 356 358 351 352 355 1 5 17 26 40 29 34 29 43 53 56 61 49 172 177
172 149 59 109 65 29 25 28 22 4 347 344 335 333 335 343 340 345 353 2 1 4 5 7 11 20 11 27 12 25 8 38 44 52 61 44 58 55